Flag for India Weather past 2 weeks in Thiruvananthapuram, Kerala, India

Now
79 °F

Partly cloudy.


Feels Like: 82 °F
Forecast: 77 / 83 °F
Wind: No wind

Location: Thiruvananthapuram

Current Time: Aug 24, 2014 at 12:13:10 AM

Latest Report: Aug 23, 2014 at 11:10 PM


Visibility: 2 mi

Pressure: 29.83 "Hg

Humidity: 79%

Dew point: 72 °F

Location of ThiruvananthapuramLocation

Historic Weather in Thiruvananthapuram — Graph

°F

Thiruvananthapuram temperature yesterday

Maximum temperature yesterday: 88 °F (at 2:10 PM)
Minimum temperature yesterday: 73 °F (at 1:10 AM)
Average temperature yesterday: 80 °F

Past Weeks' High & Low Weather Summary

 TemperatureHumidityPressure
High91 °F (Aug 19, 1:40 PM)100% (Aug 11, 7:40 AM)29.89 "Hg (Aug 11, 7:40 AM)
Low73 °F (Aug 11, 7:40 AM)66% (Aug 9, 10:40 AM)29.62 "Hg (Aug 22, 2:40 AM)
Average81 °F80%29.78 "Hg
* Reported Aug 8 10:40 PM — Aug 23 11:10 PM, Thiruvananthapuram, Weather by CustomWeather, © 2014

Note: Actual official high and low records may vary slightly from our data, if they occured in-between our weather recording intervals... More about our weather records

Advertising

Thiruvananthapuram weather history for previous 24 hours

 ConditionsComfort  
Time TempWeatherWind HumidityBarometerVisibility
11:10 PM
Aug 23
79 °FPartly cloudy.No wind79%29.83 "Hg2 mi
10:40 PM79 °FPartly cloudy.3 mph79%29.83 "Hg2 mi
9:40 PM81 °FPartly cloudy.3 mph79%29.83 "Hg2 mi
9:10 PM81 °FPartly cloudy.6 mph79%29.83 "Hg2 mi
8:40 PM81 °FPartly cloudy.5 mph79%29.80 "Hg2 mi
8:10 PM81 °FRain. Overcast.5 mph74%29.77 "Hg2 mi
7:40 PM82 °FPartly cloudy.6 mph79%29.77 "Hg2 mi
7:10 PM82 °FRain. Overcast.5 mph79%29.77 "Hg2 mi
6:40 PM82 °FBroken clouds.5 mph79%29.77 "Hg2 mi
6:10 PM84 °FBroken clouds.6 mph74%29.74 "Hg3 mi
5:40 PM84 °FPartly sunny.7 mph79%29.74 "Hg3 mi
5:10 PM86 °FPartly sunny.7 mph75%29.74 "Hg3 mi
4:40 PM86 °FPartly sunny.7 mph75%29.74 "Hg3 mi
4:10 PM86 °FPartly sunny.6 mph75%29.74 "Hg3 mi
3:40 PM88 °FBroken clouds.6 mph70%29.74 "Hg3 mi
3:10 PM88 °FBroken clouds.6 mph70%29.74 "Hg3 mi
2:40 PM88 °FPartly sunny.6 mph70%29.74 "Hg3 mi
2:10 PM88 °FPartly sunny.6 mph70%29.77 "Hg3 mi
1:10 PM82 °FBroken clouds.6 mph84%29.77 "Hg3 mi
12:40 PM81 °FBroken clouds.7 mph84%29.80 "Hg2 mi
12:10 PM81 °FBroken clouds.7 mph84%29.80 "Hg2 mi
11:40 AM79 °FBroken clouds.8 mph89%29.80 "Hg2 mi
11:10 AM77 °FDrizzle. More clouds than sun.6 mph94%29.80 "Hg1 mi
10:40 AM79 °FMore clouds than sun.7 mph89%29.80 "Hg2 mi
9:10 AM79 °FRain. More clouds than sun.9 mph89%29.80 "Hg1 mi
8:40 AM81 °FDrizzle. More clouds than sun.9 mph84%29.80 "Hg2 mi
7:40 AM77 °FMore clouds than sun.7 mph89%29.77 "Hg2 mi
7:10 AM77 °FMore clouds than sun.9 mph89%29.77 "Hg2 mi
6:40 AM75 °FDrizzle. Mostly cloudy.9 mph89%29.74 "Hg2 mi
6:10 AM75 °FDrizzle. Mostly cloudy.7 mph89%29.74 "Hg1 mi
5:40 AM75 °FRain. Mostly cloudy.9 mph89%29.71 "Hg1 mi
4:40 AM75 °FDrizzle. Mostly cloudy.7 mph89%29.71 "Hg2 mi
2:40 AM73 °FLight rain. Mostly cloudy.7 mph94%29.71 "Hg1 mi
1:40 AM73 °FRain. Mostly cloudy.5 mph100%29.74 "Hg1 mi
1:10 AM73 °FRain. Mostly cloudy.7 mph100%29.74 "Hg1 mi
12:40 AM75 °FDrizzle. Mostly cloudy.7 mph94%29.74 "Hg1 mi
12:10 AM75 °FDrizzle. Mostly cloudy.5 mph94%29.74 "Hg1 mi
Weather by CustomWeather, © 2014

See weather overviewHow to use our weather pages